Date String (YYYY-MM-DD hh:mm:ss) UTC,Instrument flags,Ambient pressure (hPa),Sample flow (lpm),Bypass flow (lpm),Sample temperature (°C),Ambient temperature (°C),ASC tube jacket temperature (°C),LED temperature (°C),Box temperature (°C),Sample RH (%),Span deviation,Mass concentration (μg/m³),Mass concentration (μg/m³),Mass concentration (μg/m³)
DateTimeUTC,F1_M11,P_M11,Q1_M11,Q2_M11,T1_M11,T2_M11,T3_M11,T4_M11,T5_M11,U1_M11,ZSPAN_M11,X0_M11,X2_M11,X1_M11
2022-09-18 12:00:00,,0825.2,5.00,0.00,30.7,29.1,00.0,39.6,32.4,19.3,0000.0,0008.58,0005.22,0004.78
2022-09-18 12:01:00,,0825.3,5.01,0.00,30.7,29.1,00.0,39.6,32.4,19.2,0000.0,0008.57,0005.21,0004.78
2022-09-18 12:02:00,,0825.4,4.99,0.00,30.7,29.1,00.0,39.6,32.4,19.3,0000.0,0009.10,0005.21,0004.78
2022-09-18 12:03:00,,0825.3,5.02,0.00,30.7,29.1,00.0,39.6,32.4,19.1,0000.0,0009.11,0005.24,0004.77
2022-09-18 12:04:00,,0825.3,4.99,0.00,30.7,29.1,00.0,39.6,32.4,19.0,0000.0,0009.22,0005.24,0004.77
2022-09-18 12:05:00,,0825.3,5.00,0.00,30.7,29.1,00.0,39.5,32.4,18.9,0000.0,0009.16,0005.22,0004.75
2022-09-18 12:06:00,,0825.3,5.00,0.00,30.7,29.1,00.0,39.5,32.4,18.5,0000.0,0009.23,0005.20,0004.71
2022-09-18 12:07:00,,0825.4,4.99,0.00,30.7,29.1,00.0,39.5,32.4,18.5,0000.0,0009.11,0005.14,0004.66
2022-09-18 12:08:00,,0825.4,5.01,0.00,30.7,29.0,00.0,39.5,32.4,18.7,0000.0,0008.92,0005.07,0004.62
2022-09-18 12:09:00,,0825.4,4.99,0.00,30.7,29.0,00.0,39.5,32.4,18.6,0000.0,0008.89,0005.05,0004.59
2022-09-18 12:10:00,,0825.4,5.00,0.00,30.7,29.0,00.0,39.5,32.4,18.6,0000.0,0009.00,0005.05,0004.56
2022-09-18 12:11:00,,0825.4,5.01,0.00,30.7,29.0,00.0,39.5,32.4,18.7,0000.6,0009.53,0005.04,0004.56
2022-09-18 12:12:00,,0825.4,4.99,0.00,30.7,29.0,00.0,39.5,32.4,18.8,0002.5,0009.70,0005.06,0004.55
2022-09-18 12:13:00,,0825.3,5.01,0.00,30.7,29.0,00.0,39.5,32.4,18.8,0002.5,0009.48,0005.07,0004.54
2022-09-18 12:14:00,,0825.3,4.99,0.00,30.7,29.0,00.0,39.5,32.4,18.8,0002.7,0009.50,0005.03,0004.52
2022-09-18 12:15:00,,0825.3,5.00,0.00,30.7,29.0,00.0,39.5,32.4,19.0,0002.2,0009.54,0005.03,0004.52
2022-09-18 12:16:00,,0825.3,5.01,0.00,30.7,29.0,00.0,39.5,32.4,19.0,0002.0,0009.65,0005.03,0004.52
2022-09-18 12:17:00,,0825.4,5.00,0.00,30.7,29.0,00.0,39.5,32.4,19.0,0000.2,0009.77,0005.07,0004.56
2022-09-18 12:18:00,,0825.4,4.98,0.00,30.7,29.1,00.0,39.5,32.4,19.0,0000.0,0009.84,0005.12,0004.60
2022-09-18 12:19:00,,0825.3,5.00,0.00,30.7,29.1,00.0,39.5,32.4,19.0,0000.0,0009.92,0005.15,0004.61
2022-09-18 12:20:00,,0825.4,4.99,0.00,30.7,29.0,00.0,39.5,32.4,18.9,0000.0,0010.00,0005.15,0004.61
2022-09-18 12:21:00,,0825.4,5.01,0.00,30.6,29.0,00.0,39.5,32.4,18.9,0000.0,0009.97,0005.18,0004.62
2022-09-18 12:22:00,,0825.4,4.99,0.00,30.6,29.0,00.0,39.5,32.4,19.0,0000.0,0009.84,0005.19,0004.63
2022-09-18 12:23:00,,0825.4,5.01,0.00,30.6,29.0,00.0,39.5,32.4,18.6,0000.0,0010.13,0005.17,0004.62
2022-09-18 12:24:00,,0825.5,4.99,0.00,30.6,29.0,00.0,39.5,32.4,18.7,0000.0,0009.85,0005.16,0004.62
2022-09-18 12:25:00,,0825.4,5.00,0.00,30.6,29.0,00.0,39.5,32.3,18.4,0000.0,0009.69,0005.14,0004.62
2022-09-18 12:26:00,,0825.4,4.99,0.00,30.6,29.0,00.0,39.5,32.4,18.5,0000.0,0009.40,0005.09,0004.60
2022-09-18 12:27:00,,0825.5,5.01,0.00,30.6,29.0,00.0,39.5,32.3,18.4,0000.0,0009.89,0005.08,0004.59
2022-09-18 12:28:00,,0825.4,4.99,0.00,30.6,29.0,00.0,39.5,32.3,18.5,0000.0,0009.92,0005.02,0004.57
2022-09-18 12:29:00,,0825.4,5.00,0.00,30.6,29.0,00.0,39.5,32.3,18.5,0000.0,0010.12,0004.98,0004.55
2022-09-18 12:30:00,,0825.5,5.00,0.00,30.6,29.0,00.0,39.4,32.3,18.8,0002.0,0010.32,0004.98,0004.56
2022-09-18 12:31:00,,0825.5,4.99,0.00,30.6,29.0,00.0,39.4,32.3,18.8,0001.6,0010.31,0004.97,0004.56
2022-09-18 12:32:00,,0825.5,5.01,0.00,30.6,29.0,00.0,39.4,32.3,18.9,0000.8,0010.46,0004.96,0004.56
2022-09-18 12:33:00,,0825.5,5.00,0.00,30.6,29.0,00.0,39.4,32.3,19.3,0001.4,0010.38,0004.98,0004.58
2022-09-18 12:34:00,,0825.5,4.99,0.00,30.6,29.0,00.0,39.4,32.3,19.3,0001.2,0010.07,0005.04,0004.61
2022-09-18 12:35:00,,0825.5,5.01,0.00,30.6,29.0,00.0,39.4,32.3,19.3,0001.5,0010.36,0005.08,0004.63
2022-09-18 12:36:00,,0825.5,5.00,0.00,30.6,29.0,00.0,39.4,32.3,18.8,0001.2,0011.25,0005.14,0004.65
2022-09-18 12:37:00,,0825.4,5.00,0.00,30.6,29.0,00.0,39.4,32.3,18.8,0001.1,0011.47,0005.18,0004.65
2022-09-18 12:38:00,,0825.5,5.00,0.00,30.6,29.0,00.0,39.4,32.3,18.9,0001.1,0010.89,0005.20,0004.67
2022-09-18 12:39:00,,0825.5,5.01,0.00,30.6,29.0,00.0,39.4,32.3,18.9,0000.6,0010.36,0005.21,0004.68
2022-09-18 12:40:00,,0825.5,4.99,0.00,30.6,29.0,00.0,39.4,32.3,18.7,0000.1,0010.25,0005.22,0004.68
2022-09-18 12:41:00,,0825.5,5.01,0.00,30.6,29.0,00.0,39.4,32.3,19.1,0000.0,0010.02,0005.25,0004.69
2022-09-18 12:42:00,,0825.5,4.99,0.00,30.6,29.0,00.0,39.4,32.3,19.2,0000.0,0010.20,0005.28,0004.71
2022-09-18 12:43:00,,0825.6,5.01,0.00,30.6,28.9,00.0,39.4,32.3,19.3,0000.0,0011.07,0005.31,0004.72
2022-09-18 12:44:00,,0825.6,5.00,0.00,30.6,28.9,00.0,39.4,32.3,19.3,0000.0,0011.22,0005.28,0004.71
2022-09-18 12:45:00,,0825.6,5.00,0.00,30.6,28.9,00.0,39.4,32.3,19.4,0000.0,0011.06,0005.24,0004.70
2022-09-18 12:46:00,,0825.6,5.01,0.00,30.6,28.9,00.0,39.4,32.3,19.4,0000.0,0010.85,0005.22,0004.69
2022-09-18 12:47:00,,0825.6,4.99,0.00,30.6,28.9,00.0,39.4,32.3,19.5,0000.0,0010.33,0005.19,0004.70
2022-09-18 12:48:00,,0825.6,5.01,0.00,30.5,28.9,00.0,39.4,32.2,19.5,0000.0,0010.12,0005.18,0004.73
2022-09-18 12:49:00,,0825.5,5.00,0.00,30.5,28.9,00.0,39.4,32.3,19.4,0000.0,0010.03,0005.17,0004.74
2022-09-18 12:50:00,,0825.5,4.99,0.00,30.5,28.9,00.0,39.4,32.3,19.4,0000.0,0010.08,0005.19,0004.75
2022-09-18 12:51:00,,0825.6,5.01,0.00,30.5,28.9,00.0,39.4,32.2,19.4,0000.0,0010.00,0005.19,0004.77
2022-09-18 12:52:00,,0825.5,4.99,0.00,30.5,28.9,00.0,39.4,32.2,19.2,0000.0,0009.94,0005.20,0004.78
2022-09-18 12:53:00,,0825.5,5.00,0.00,30.5,28.9,00.0,39.4,32.2,19.2,0000.0,0010.21,0005.15,0004.75
2022-09-18 12:54:00,,0825.5,5.00,0.00,30.5,28.9,00.0,39.4,32.2,19.1,0000.0,0009.48,0005.09,0004.73
2022-09-18 12:55:00,,0825.5,5.00,0.00,30.5,28.9,00.0,39.4,32.2,19.1,0000.0,0008.87,0005.06,0004.71
2022-09-18 12:56:00,,0825.6,5.01,0.00,30.5,28.8,00.0,39.4,32.2,19.0,0000.0,0008.80,0005.06,0004.69
2022-09-18 12:57:00,,0825.6,4.98,0.00,30.5,28.8,00.0,39.4,32.2,19.2,0000.0,0008.86,0005.03,0004.66
2022-09-18 12:58:00,,0825.6,5.01,0.00,30.5,28.9,00.0,39.3,32.2,19.5,0000.0,0009.37,0005.07,0004.66
2022-09-18 12:59:00,,0825.6,4.99,0.00,30.5,28.8,00.0,39.3,32.2,19.2,0000.0,0009.45,0005.06,0004.64
